Simultaneous Nadir Overpasses (SNOs) Predictions

Prediction of SNOs between LANDSAT-8 and NPP Satellite Orbit:

Table of predicted SNOs for the next 14.0 days since TLE Epoch: 6/22/2015
Index Date (LANDSAT-8) Time (LANDSAT-8) Lat,Lon (LANDSAT-8) SZA (LANDSAT-8 ) Date (NPP) Time (NPP) Lat,Lon (NPP) SZA (NPP ) Distance(km) Time Diff (sec)
1 06/23/2015 11:23:20 -70.57,-173.87 132.92 06/23/2015 11:22:33 -70.59,-173.86 132.89 3.07 47
2 06/23/2015 12:12:47 70.47, -6.37 46.99 06/23/2015 12:13:17 70.48, -6.37 47.00 1.37 30
3 06/26/2015 02:50:06 71.40, 135.70 47.96 06/26/2015 02:48:59 71.43, 133.18 48.06 89.44 67
4 06/26/2015 03:39:50 -70.53, -58.03 132.89 06/26/2015 03:39:26 -70.55, -58.03 132.87 2.30 24
5 06/26/2015 04:29:17 70.43, 109.46 47.01 06/26/2015 04:30:10 70.44, 109.45 47.02 1.63 53
6 06/28/2015 19:06:50 70.60,-109.68 47.28 06/28/2015 19:05:37 70.62,-109.68 47.31 2.35 73
7 06/28/2015 19:56:20 -70.49, 57.79 132.82 06/28/2015 19:56:19 -70.52, 57.79 132.79 3.39 1
8 06/28/2015 20:45:49 70.27,-134.89 46.97 06/28/2015 20:47:01 70.31,-134.57 46.99 12.58 72
9 07/01/2015 11:23:19 70.59, 6.20 47.43 07/01/2015 11:22:30 70.59, 6.13 47.45 2.62 49
10 07/01/2015 12:12:49 -70.49, 173.67 132.67 07/01/2015 12:13:12 -70.49, 173.61 132.66 2.52 23
11 07/04/2015 03:39:48 70.52, 121.98 47.57 07/04/2015 03:39:21 70.52, 122.01 47.58 1.12 27
12 07/04/2015 04:29:18 -70.42, -70.54 132.52 07/04/2015 04:30:03 -70.41, -70.50 132.54 1.48 45
